[[{"header":{"parameterUnit":"m.s-1","parameterCategory":1,"la1":30.2991,"la2":30.254,"lo1":-89.0895,"lo2":-89.0444,"dy":0.0017,"dx":0.0017,"nx":28,"ny":28,"refTime":"2025-05-19T21:00:00:Z","depth":0,"parameterNumber":2,"parameterNumberName":"U-component_of_WINDS"},"data":[0,0,0,0,0,0,0,0,0,0,0,0,0,0,0,0,0,0,0,0,0,0,0,0,0,0,0,0,0,0,0,0,0,0,0,0,0,0,0,0,0,0,0,0,0,0,0,0,0,0,0,0,0,0,0,0,0,0,-2.5632,-2.5632,0,-2.5655,-2.5656,-2.5656,-2.5633,-2.5632,-2.5631,-2.5631,-2.5656,-2.5657,-2.5658,0,0,0,0,0,0,0,0,0,0,0,0,0,-2.5569,-2.5571,-2.5632,-2.5632,-2.5632,-2.5655,-2.5656,-2.5656,-2.5633,-2.5632,-2.5631,-2.563,-2.5655,-2.5657,-2.5659,0,0,0,0,0,0,0,0,0,0,0,0,0,-2.5595,-2.5571,-2.5632,-2.5624,-2.5623,-2.5655,-2.5656,-2.5656,-2.5634,-2.5632,-2.5631,-2.563,-2.5654,-2.5657,-2.5659,-2.57,0,0,-2.5666,-2.5667,0,0,0,0,0,0,0,0,-2.5594,-2.5597,-2.5625,-2.5624,-2.5624,-2.564,-2.5643,-2.5671,-2.5634,-2.563,-2.563,-2.5629,-2.5652,-2.5654,-2.5661,-2.5701,-2.5702,-2.5666,-2.5667,-2.5668,-2.5669,0,0,0,0,0,0,0,-2.5592,-2.5596,-2.5641,-2.5625,-2.5625,-2.562,-2.5622,-2.5648,-2.5648,-2.563,-2.5628,-2.5631,-2.5651,-2.5659,-2.5662,-2.5703,-2.5666,-2.5668,-2.5669,-2.567,-2.5779,-2.5781,0,0,0,0,0,0,-2.5591,-2.5595,-2.564,-2.5642,-2.5605,-2.5622,-2.5624,-2.5636,-2.5648,-2.5648,-2.5633,-2.563,-2.5656,-2.5659,-2.5663,-2.5712,-2.5668,-2.567,-2.5672,-2.5778,-2.5779,-2.5781,0,0,0,0,0,0,-2.5589,-2.5595,-2.564,-2.5618,-2.5623,-2.5625,-2.5638,-2.5637,-2.5645,-2.565,-2.565,-2.5641,-2.5655,-2.5659,-2.5691,-2.5712,-2.5672,-2.5674,-2.5776,-2.5778,-2.578,-2.5811,0,0,0,0,0,0,-2.5588,-2.5595,-2.561,-2.5619,-2.5625,-2.5667,-2.5639,-2.5639,-2.5649,-2.5647,-2.5657,-2.5658,-2.5654,-2.5688,-2.5693,-2.5715,-2.5675,-2.5774,-2.5777,-2.578,-2.5808,-2.5814,-2.5819,0,0,0,0,0,-2.5586,-2.5617,-2.5611,-2.5616,-2.5643,-2.5668,-2.5672,-2.5667,-2.5651,-2.5667,-2.567,-2.5657,-2.571,-2.5691,-2.5697,-2.572,-2.5772,-2.5776,-2.5779,-2.5805,-2.5813,-2.5819,0,0,0,0,0,0,-2.5611,-2.5618,-2.5611,-2.5646,-2.5657,-2.5664,-2.5684,-2.5675,-2.569,-2.5687,-2.5681,-2.5683,-2.5717,-2.5722,-2.5701,-2.5761,-2.5739,-2.5743,-2.5756,-2.5763,-2.5769,-2.5767,-2.5677,0,0,0,0,0,-2.5621,-2.564,-2.5646,-2.5676,-2.5682,-2.5682,-2.5693,-2.5688,-2.5699,-2.5704,-2.5709,-2.572,-2.5739,-2.5752,-2.5769,-2.5809,-2.5811,-2.5828,-2.5833,-2.5838,-2.5842,-2.5864,-2.5871,-2.5792,-2.5792,-2.5792,0,0,-2.5641,-2.5647,-2.566,-2.5682,-2.5689,-2.571,-2.5686,-2.5709,-2.5724,-2.5707,-2.5737,-2.5742,-2.5754,-2.579,-2.5807,-2.5795,-2.5864,-2.5842,-2.5846,-2.5847,-2.5868,-2.5876,-2.5882,-2.5795,-2.5794,-2.5794,0,0,-2.5688,-2.5695,-2.5722,-2.573,-2.5742,-2.5742,-2.5749,-2.5758,-2.576,-2.5791,-2.5779,-2.5798,-2.583,-2.584,-2.5849,-2.5902,-2.5892,-2.5908,-2.5937,-2.5958,-2.5965,-2.597,-2.5989,-2.5996,-2.5912,-2.5912,-2.5912,0,-2.5712,-2.5742,-2.5737,-2.576,-2.5771,-2.5757,-2.5784,-2.5793,-2.581,-2.5818,-2.5805,-2.5847,-2.5854,-2.5893,-2.5906,-2.5914,-2.5921,-2.5906,-2.5964,-2.5969,-2.5975,-2.5993,-2.6,-2.5914,-2.5914,-2.5914,-2.5914,0,-2.5771,-2.5792,-2.5812,-2.5829,-2.5842,-2.5867,-2.5867,-2.5881,-2.5876,-2.5877,-2.5909,-2.5918,-2.5937,-2.5947,-2.5942,-2.5985,-2.5978,-2.5965,-2.5942,-2.5984,-2.6001,-2.6008,-2.5917,-2.5916,-2.5916,-2.5915,0,0,-2.5833,-2.5848,-2.5855,-2.5863,-2.5876,-2.5893,-2.5919,-2.5938,-2.595,-2.5963,-2.5984,-2.6013,-2.6002,-2.6012,-2.6009,-2.6028,-2.607,-2.6013,-2.6013,-2.6023,-2.6118,-2.6127,-2.6135,-2.6064,-2.6065,-2.6066,-2.6117,0,-2.588,-2.5924,-2.5921,-2.5962,-2.5982,-2.597,-2.5993,-2.6004,-2.6006,-2.6025,-2.6028,-2.6049,-2.6032,-2.6038,-2.6057,-2.6061,-2.6089,-2.6057,-2.6084,-2.6085,-2.608,-2.6144,-2.6154,-2.6201,-2.6124,-2.6125,-2.6126,0,-2.5941,-2.5956,-2.6,-2.6011,-2.6019,-2.6039,-2.6057,-2.6074,-2.6087,-2.6088,-2.61,-2.6094,-2.6121,-2.6099,-2.6136,-2.6114,-2.6126,-2.613,-2.6131,-2.6133,-2.6107,-2.6147,-2.6216,-2.6224,-2.6136,-2.6135,-2.6135,0,-2.5982,-2.6014,-2.6044,-2.6051,-2.6065,-2.6079,-2.6086,-2.6097,-2.6109,-2.6125,-2.6133,-2.6152,-2.6163,-2.6178,-2.6178,-2.6161,-2.6216,-2.6193,-2.6217,-2.6217,-2.6228,-2.6227,-2.63,-2.6237,-2.6237,-2.6237,-2.6236,0,-2.6035,-2.6062,-2.6062,-2.6081,-2.6111,-2.6108,-2.6138,-2.6143,-2.6154,-2.6174,-2.6165,-2.6184,-2.6183,-2.6203,-2.6203,-2.6234,-2.6239,-2.624,-2.624,-2.6241,-2.6241,-2.6247,-2.6244,-2.6238,-2.6238,-2.6238,-2.6237,0,-2.6086,-2.6087,-2.6119,-2.6129,-2.6133,-2.6155,-2.6164,-2.6182,-2.6185,-2.621,-2.6216,-2.6221,-2.6243,-2.6245,-2.6271,-2.6271,-2.6309,-2.6305,-2.6305,-2.6304,-2.6328,-2.6326,-2.6407,-2.6417,-2.6348,-2.6348,-2.6349,0,-2.6119,-2.6139,-2.6152,-2.6165,-2.6172,-2.6193,-2.6205,-2.6203,-2.6217,-2.6234,-2.625,-2.6272,-2.6289,-2.6326,-2.6332,-2.6353,-2.6349,-2.6376,-2.6352,-2.6352,-2.6349,-2.6348,-2.635,-2.6381,-2.6381,-2.6382,-2.6382,0,-2.6178,-2.6178,-2.6196,-2.6214,-2.6229,-2.6244,-2.6258,-2.6269,-2.6269,-2.6285,-2.6308,-2.6321,-2.6348,-2.637,-2.6391,-2.6398,-2.6391,-2.639,-2.6397,-2.6398,-2.6396,-2.6397,-2.6317,-2.6388,-2.6388,-2.6387,-2.6387,-2.6387,-2.6221,-2.6239,-2.6251,-2.6271,-2.6282,-2.6295,-2.6312,-2.6318,-2.6337,-2.6358,-2.6357,-2.6382,-2.6396,-2.6422,-2.6432,-2.6452,-2.6443,-2.6453,-2.6455,-2.6457,-2.646,-2.6394,-2.6456,-2.6456,-2.6456,-2.6456,-2.6455,0,-2.628,-2.6287,-2.6306,-2.6325,-2.6342,-2.6333,-2.6348,-2.6363,-2.6385,-2.6399,-2.6416,-2.6443,-2.6465,-2.6473,-2.6495,-2.651,-2.6507,-2.6515,-2.6514,-2.6516,-2.6467,-2.6459,-2.6517,-2.6517,-2.6517,-2.6517,-2.6517,-2.6517,-2.6312,-2.6342,-2.6344,-2.6379,-2.6386,-2.6411,-2.642,-2.6433,-2.6443,-2.6474,-2.6492,-2.6497,-2.6509,-2.6531,-2.6551,-2.6553,-2.6561,-2.6571,-2.6572,-2.6526,-2.6519,-2.6513,-2.6506,-2.6573,-2.6573,-2.6619,-2.662,-2.662]},{"header":{"parameterUnit":"m.s-1","parameterCategory":1,"la1":30.2991,"la2":30.254,"lo1":-89.0895,"lo2":-89.0444,"dy":0.0017,"dx":0.0017,"nx":28,"ny":28,"refTime":"2025-05-19T21:00:00:Z","depth":0,"parameterNumber":3,"parameterNumberName":"V-component_of_WINDS"},"data":[0,0,0,0,0,0,0,0,0,0,0,0,0,0,0,0,0,0,0,0,0,0,0,0,0,0,0,0,0,0,0,0,0,0,0,0,0,0,0,0,0,0,0,0,0,0,0,0,0,0,0,0,0,0,0,0,0,0,4.922,4.9221,0,4.925,4.925,4.925,4.9222,4.9221,4.9219,4.9218,4.9246,4.9248,4.925,0,0,0,0,0,0,0,0,0,0,0,0,0,4.9138,4.914,4.922,4.9221,4.9221,4.925,4.925,4.925,4.9222,4.9221,4.9219,4.9218,4.9245,4.9248,4.925,0,0,0,0,0,0,0,0,0,0,0,0,0,4.9171,4.914,4.922,4.921,4.921,4.925,4.925,4.9251,4.9222,4.9221,4.9219,4.9217,4.9245,4.9247,4.925,4.93,0,0,4.9258,4.9259,0,0,0,0,0,0,0,0,4.9169,4.9174,4.9211,4.9211,4.921,4.923,4.9231,4.9267,4.9223,4.9217,4.9218,4.9216,4.9242,4.9245,4.9254,4.9302,4.9303,4.9258,4.926,4.9261,4.9262,0,0,0,0,0,0,0,4.9167,4.9173,4.9232,4.9212,4.9211,4.9204,4.9207,4.9238,4.9239,4.9218,4.9216,4.922,4.9241,4.9251,4.9254,4.9303,4.9258,4.9261,4.9262,4.9263,4.9396,4.9397,0,0,0,0,0,0,4.9166,4.9171,4.9231,4.9233,4.9185,4.9207,4.921,4.9226,4.9238,4.9239,4.9221,4.9218,4.9248,4.9251,4.9255,4.9316,4.9261,4.9264,4.9265,4.9394,4.9396,4.9398,0,0,0,0,0,0,4.9165,4.9172,4.923,4.9201,4.9208,4.921,4.9228,4.9227,4.9237,4.9241,4.9241,4.9231,4.9247,4.9251,4.929,4.9317,4.9265,4.9267,4.9391,4.9394,4.9397,4.9438,0,0,0,0,0,0,4.9162,4.9171,4.9191,4.9202,4.921,4.9264,4.9229,4.9229,4.9242,4.9239,4.925,4.9251,4.9246,4.9286,4.9293,4.9319,4.9269,4.9389,4.9393,4.9396,4.9434,4.9441,4.9448,0,0,0,0,0,4.916,4.92,4.9192,4.9199,4.9234,4.9266,4.927,4.9264,4.9244,4.9264,4.9267,4.925,4.9313,4.929,4.9297,4.9325,4.9387,4.9392,4.9396,4.9431,4.944,4.9448,0,0,0,0,0,0,4.919,4.9201,4.9192,4.9237,4.9251,4.9261,4.9285,4.9274,4.9292,4.9288,4.9279,4.9282,4.9323,4.9328,4.9303,4.9376,4.9347,4.9353,4.9371,4.938,4.9387,4.9384,4.9272,0,0,0,0,0,4.9202,4.9227,4.9236,4.9275,4.9282,4.9283,4.9296,4.9291,4.9304,4.9309,4.9315,4.9328,4.935,4.9365,4.9386,4.9435,4.9437,4.9458,4.9465,4.947,4.9475,4.9503,4.9512,4.9412,4.9412,4.9412,0,0,4.9227,4.9236,4.9252,4.9281,4.9291,4.9318,4.9288,4.9316,4.9336,4.9313,4.935,4.9355,4.9369,4.9413,4.9433,4.9418,4.9504,4.9476,4.948,4.9482,4.9508,4.9518,4.9526,4.9415,4.9414,4.9414,0,0,4.9286,4.9295,4.933,4.9341,4.9357,4.9357,4.9366,4.9378,4.9381,4.9418,4.9403,4.9426,4.9464,4.9476,4.9486,4.9553,4.9539,4.956,4.9596,4.9623,4.9631,4.9638,4.9662,4.9671,4.9565,4.9565,4.9565,0,4.9314,4.9354,4.9349,4.9379,4.9393,4.9376,4.9411,4.9421,4.9443,4.9453,4.9437,4.9487,4.9495,4.9542,4.9558,4.9568,4.9577,4.9558,4.963,4.9637,4.9644,4.9667,4.9676,4.9567,4.9567,4.9567,4.9566,0,4.9389,4.9417,4.9443,4.9466,4.9483,4.9515,4.9515,4.9532,4.9526,4.9528,4.9567,4.9577,4.96,4.9611,4.9604,4.9658,4.9649,4.9632,4.9602,4.9656,4.9677,4.9686,4.9571,4.957,4.9569,4.9569,0,0,4.9466,4.9488,4.9497,4.9508,4.9526,4.9547,4.958,4.9604,4.9619,4.9636,4.9663,4.9697,4.9683,4.9695,4.969,4.9713,4.9766,4.9693,4.9694,4.9707,4.9827,4.9839,4.985,4.9758,4.9759,4.9761,4.9826,0,4.9526,4.9583,4.958,4.9634,4.966,4.9645,4.9674,4.9688,4.9691,4.9714,4.9717,4.9742,4.972,4.9728,4.9751,4.9755,4.979,4.975,4.9782,4.9784,4.9779,4.9861,4.9874,4.9935,4.9834,4.9835,4.9836,0,4.9603,4.9624,4.968,4.9696,4.9707,4.9733,4.9756,4.9778,4.9793,4.9794,4.981,4.9801,4.9834,4.9805,4.9851,4.9824,4.9837,4.9841,4.9843,4.9846,4.9813,4.9865,4.9954,4.9963,4.9849,4.9848,4.9847,0,4.9654,4.9696,4.9736,4.9746,4.9765,4.9784,4.9792,4.9807,4.9822,4.9842,4.9852,4.9875,4.9888,4.9906,4.9904,4.9883,4.9951,4.9921,4.9953,4.9953,4.9967,4.9966,5.0059,4.9976,4.9976,4.9976,4.9975,0,4.9721,4.9757,4.976,4.9784,4.9824,4.982,4.9859,4.9866,4.988,4.9905,4.9893,4.9917,4.9914,4.9938,4.9937,4.9975,4.9981,4.9982,4.9982,4.9983,4.9983,4.9992,4.9987,4.9978,4.9977,4.9977,4.9977,0,4.9785,4.9788,4.9831,4.9846,4.9851,4.988,4.9893,4.9916,4.9919,4.9952,4.9959,4.9964,4.9993,4.9993,5.0024,5.0024,5.0071,5.0065,5.0066,5.0065,5.0097,5.0094,5.0198,5.0211,5.012,5.012,5.0121,0,4.9827,4.9854,4.9874,4.9891,4.9901,4.9928,4.9945,4.9943,4.996,4.9982,5.0003,5.003,5.0052,5.0098,5.0104,5.0128,5.0123,5.0158,5.0127,5.0128,5.0124,5.0123,5.0126,5.0164,5.0165,5.0166,5.0167,0,4.9903,4.9904,4.9928,4.9954,4.9975,4.9994,5.0013,5.0027,5.0028,5.0048,5.0078,5.0095,5.0128,5.0156,5.018,5.0188,5.0178,5.0177,5.0185,5.0187,5.0187,5.0188,5.0083,5.0174,5.0173,5.0173,5.0172,5.0172,4.9957,4.9981,4.9999,5.0028,5.0042,5.006,5.0083,5.0091,5.0116,5.0144,5.0141,5.0174,5.0191,5.0223,5.0233,5.0259,5.0247,5.0259,5.0262,5.0265,5.0269,5.0183,5.0263,5.0263,5.0263,5.0263,5.0263,0,5.0032,5.0044,5.007,5.0097,5.012,5.011,5.013,5.015,5.0179,5.0196,5.0219,5.0253,5.0281,5.029,5.0316,5.0335,5.0331,5.0342,5.0341,5.0343,5.0278,5.0268,5.0345,5.0345,5.0345,5.0345,5.0345,5.0345,5.0074,5.0115,5.0119,5.0167,5.0178,5.0211,5.0224,5.0241,5.0255,5.0294,5.0317,5.0324,5.0338,5.0366,5.0391,5.0393,5.0403,5.0416,5.0416,5.0356,5.0347,5.0339,5.033,5.0419,5.0419,5.0479,5.0479,5.048]}]]